SCP
0 0 0 0 0 0 0 0 0 0 0 0 0 0 0 0 0 0 0 0 0 0
0 0 0 0 0 0 0 0 0 0 0 0 0 0 0 0 0 0 0 0 0 0
0 0 0 0 0 0 0 0 0 0 0 0 0 0 0 0 0 0 0 0 0 0
0 0 0 0 0 0 0 0 0 0 0 0 0 0 0 0 0 0 0 0 0 0
0 0 0 0 0 0 0 0 0 0 0 0 0 0 0 0 0 0 0 0 0 0
0 0 0 0 0 0 0 0 0 0 0 0 0 0 0 0 0 0 0 0 0 0
0 0 0 0 0 0 0 0 0 0 0 0 0 0 0 0 0 0 0 0 0 0
0 0 0 0 0 0 0 0 0 0 0 0 0 0 0 0 0 0 0 0 0 0
0 0 0 0 -0 -0 -0 0 0 0 0 0 0 0 0 0 0 0 0 0 0 0
-0 0 0 0 0 0 0 0 0 0 0 0 0 0 0 0 0 0 0 0 0 0
-0 -0 -0 -0 -0 -0 -0 -0 -0 0 0 0 0 0 0 0 0 0 0 0 0 0
-0 -0 -0 0 0 0 0 0 0 0 0 0 0 0 0 0 0 0 0 0 0 0
0 0 -0 -0 -0 -0 -0 -0 -0 -0 -0 -0 -0 -0 -0 -0 -0 -0 -0 0 0 0
0 -0 -0 -0 -0 -0 -0 -0 -0 -0 -0 -0 -0 -0 -0 -0 -0 -0 -0 -0 -0 -0
Wind_Speed_500mb
49 47 48 48 46 47 50 54 45 58 59 66 71 74 70 80 85 80 82 83 83 79
42 42 47 48 46 46 48 50 33 37 20 32 53 56 54 53 62 62 75 84 78 82
33 35 41 45 53 52 50 34 33 30 32 25 15 29 26 19 46 54 58 65 66 69
19 25 36 42 42 36 25 29 29 20 21 28 32 42 41 40 42 48 55 65 71 71
46 43 45 38 29 26 18 8 11 9 7 16 17 21 46 49 56 56 48 55 67 91
49 56 51 43 36 29 27 23 16 10 9 6 12 16 16 22 27 33 52 46 49 38
45 44 39 33 28 20 20 15 14 12 11 11 10 14 18 24 28 33 37 42 44 45
36 32 27 25 23 21 17 15 14 13 13 15 18 22 25 27 31 36 39 41 43 46
29 27 25 23 22 20 19 17 18 20 22 24 25 28 31 35 38 40 44 49 50 50
26 26 27 26 24 24 26 27 27 28 29 31 34 36 39 42 44 47 48 50 52 55
29 28 28 28 31 31 34 36 37 39 41 41 43 46 48 51 52 54 55 56 58 60
30 30 30 31 32 32 33 34 36 39 42 44 45 46 46 47 51 54 56 57 56 56
30 30 28 27 28 31 35 38 42 44 45 47 49 49 49 46 44 47 48 48 52 55
26 27 28 30 35 39 44 48 51 54 55 56 58 59 54 47 45 50 51 55 57 50
Wind_Direction_500mb
230 238 243 249 253 250 253 258 265 264 257 256 253 247 244 240 239 235 238 234 242 250
232 242 244 251 250 249 240 237 248 239 230 236 235 228 230 240 231 231 235 235 236 247
240 243 246 243 239 233 230 241 230 203 198 210 219 204 214 220 227 229 231 237 240 242
193 183 188 168 133 135 142 153 165 190 219 236 242 246 258 263 268 261 257 257 257 259
93 94 101 97 97 93 135 118 153 131 190 242 263 245 249 255 254 260 264 269 271 260
78 68 68 64 60 60 58 45 42 26 11 325 312 311 293 283 278 268 258 279 281 273
67 67 69 72 76 72 67 63 47 31 9 355 327 299 291 287 285 278 274 276 279 275
71 70 64 61 57 47 37 28 19 7 350 334 325 315 308 299 295 292 290 288 286 284
57 50 47 42 33 23 17 6 354 342 339 335 329 321 316 309 306 302 299 295 290 288
37 30 25 19 10 4 359 353 346 340 334 332 329 323 318 315 311 307 304 302 299 295
21 15 7 358 352 349 345 343 342 339 335 333 331 327 323 319 314 308 305 302 299 296
357 349 345 341 341 340 338 339 338 337 335 332 329 327 325 321 314 310 307 305 305 302
342 341 341 342 345 349 349 348 345 343 341 340 338 337 337 334 325 319 314 307 302 298
339 343 347 350 350 347 344 343 343 342 342 341 341 340 341 335 329 326 322 319 317 310
Wind_Speed_850mb
49 47 48 48 46 47 50 54 45 58 59 66 71 74 70 80 85 80 82 83 83 79
42 42 47 48 46 46 48 50 33 37 20 32 53 56 54 53 62 62 75 84 78 82
33 35 41 45 53 52 50 34 33 30 32 25 15 29 26 19 46 54 58 65 66 69
19 25 36 42 42 36 25 29 29 20 21 28 32 42 41 40 42 48 55 65 71 71
46 43 45 38 29 26 18 8 11 9 7 16 17 21 46 49 56 56 48 55 67 91
49 56 51 43 36 29 27 23 16 10 9 6 12 16 16 22 27 33 52 46 49 38
45 44 39 33 28 20 20 15 14 12 11 11 10 14 18 24 28 33 37 42 44 45
36 32 27 25 23 21 17 15 14 13 13 15 18 22 25 27 31 36 39 41 43 46
29 27 25 23 22 20 19 17 18 20 22 24 25 28 31 35 38 40 44 49 50 50
26 26 27 26 24 24 26 27 27 28 29 31 34 36 39 42 44 47 48 50 52 55
29 28 28 28 31 31 34 36 37 39 41 41 43 46 48 51 52 54 55 56 58 60
30 30 30 31 32 32 33 34 36 39 42 44 45 46 46 47 51 54 56 57 56 56
30 30 28 27 28 31 35 38 42 44 45 47 49 49 49 46 44 47 48 48 52 55
26 27 28 30 35 39 44 48 51 54 55 56 58 59 54 47 45 50 51 55 57 50
Wind_Direction_850mb
230 238 243 249 253 250 253 258 265 264 257 256 253 247 244 240 239 235 238 234 242 250
232 242 244 251 250 249 240 237 248 239 230 236 235 228 230 240 231 231 235 235 236 247
240 243 246 243 239 233 230 241 230 203 198 210 219 204 214 220 227 229 231 237 240 242
193 183 188 168 133 135 142 153 165 190 219 236 242 246 258 263 268 261 257 257 257 259
93 94 101 97 97 93 135 118 153 131 190 242 263 245 249 255 254 260 264 269 271 260
78 68 68 64 60 60 58 45 42 26 11 325 312 311 293 283 278 268 258 279 281 273
67 67 69 72 76 72 67 63 47 31 9 355 327 299 291 287 285 278 274 276 279 275
71 70 64 61 57 47 37 28 19 7 350 334 325 315 308 299 295 292 290 288 286 284
57 50 47 42 33 23 17 6 354 342 339 335 329 321 316 309 306 302 299 295 290 288
37 30 25 19 10 4 359 353 346 340 334 332 329 323 318 315 311 307 304 302 299 295
21 15 7 358 352 349 345 343 342 339 335 333 331 327 323 319 314 308 305 302 299 296
357 349 345 341 341 340 338 339 338 337 335 332 329 327 325 321 314 310 307 305 305 302
342 341 341 342 345 349 349 348 345 343 341 340 338 337 337 334 325 319 314 307 302 298
339 343 347 350 350 347 344 343 343 342 342 341 341 340 341 335 329 326 322 319 317 310